SCTN

Chaitén Airfield

Airport
ICAO code
SCTN
IATA Code
WCH
Summary
ICAO Region
CARSAM
ICAO Territory
Location

Chaiten, Los Lagos

Serving
Chaiten
Elevation
13 ft
Coordinates
42° 55' 58" S , 72° 41' 57" W
KCC
Metar
SCTN 200700Z AUTO 13003KT 090V170 CAVOK M00/M00 Q1025

Airport located near Chaitén, Los Lagos, Chile.

Climatology

Temperate oceanic climate (Köppen climate classification Cfb)

Runways

Designator Length Width Surface Rops
13/31 1423 20 ASP No/No

Airport map

Aerial View

SKYbrary Partners:

Safety knowledge contributed by: